Time,TemperatureF,DewpointF,PressureIn,WindDirection,WindDirectionDegrees,WindSpeedMPH,WindSpeedGustMPH,Humidity,HourlyPrecipIn,Conditions,Clouds,dailyrainin,SoftwareType,DateUTC
2013-10-21 00:01:00,43.6,41.7,30.11,WSW,241,0.0,1.0,93,0.00,,---,0.00,VWS V14.01,2013-10-21 04:01:00,
2013-10-21 00:06:00,43.6,41.7,30.11,WSW,241,0.0,1.0,93,0.00,,---,0.00,VWS V14.01,2013-10-21 04:06:00,
2013-10-21 00:11:00,43.6,41.7,30.11,WSW,241,0.0,0.0,93,0.00,,---,0.00,VWS V14.01,2013-10-21 04:11:00,
2013-10-21 00:16:00,43.4,41.5,30.11,WSW,241,0.0,0.0,93,0.00,,---,0.00,VWS V14.01,2013-10-21 04:16:00,
2013-10-21 00:21:00,43.2,41.3,30.11,WSW,241,0.0,0.0,93,0.00,,---,0.00,VWS V14.01,2013-10-21 04:21:00,
2013-10-21 00:26:00,43.1,41.2,30.11,WSW,241,1.0,1.0,93,0.00,,---,0.00,VWS V14.01,2013-10-21 04:26:00,
2013-10-21 00:31:00,43.2,41.3,30.11,WSW,241,0.0,1.0,93,0.00,,---,0.00,VWS V14.01,2013-10-21 04:31:00,
2013-10-21 00:36:00,43.1,41.2,30.11,WSW,241,0.0,1.0,93,0.00,,---,0.00,VWS V14.01,2013-10-21 04:36:00,
2013-10-21 00:41:00,42.9,41.0,30.10,WSW,241,0.0,0.0,93,0.00,,---,0.00,VWS V14.01,2013-10-21 04:41:00,
2013-10-21 00:46:00,42.7,40.8,30.10,WSW,241,0.0,0.0,93,0.00,,---,0.00,VWS V14.01,2013-10-21 04:46:00,
2013-10-21 00:51:00,42.6,40.7,30.11,WSW,241,0.0,0.0,93,0.00,,---,0.00,VWS V14.01,2013-10-21 04:51:00,
2013-10-21 00:56:00,42.6,40.7,30.11,WSW,241,0.0,0.0,93,0.00,,---,0.00,VWS V14.01,2013-10-21 04:56:00,
2013-10-21 01:01:00,42.5,40.6,30.11,WSW,241,0.0,0.0,93,0.00,,---,0.00,VWS V14.01,2013-10-21 05:01:00,
2013-10-21 01:06:00,42.3,40.4,30.11,WSW,241,0.0,1.0,93,0.00,,---,0.00,VWS V14.01,2013-10-21 05:06:00,
2013-10-21 01:11:00,42.2,40.3,30.11,WSW,241,0.0,1.0,93,0.00,,---,0.00,VWS V14.01,2013-10-21 05:11:00,
2013-10-21 01:16:00,42.2,40.6,30.10,WSW,241,0.0,1.0,94,0.00,,---,0.00,VWS V14.01,2013-10-21 05:16:00,
2013-10-21 01:21:00,42.0,40.4,30.10,WSW,241,0.0,1.0,94,0.00,,---,0.00,VWS V14.01,2013-10-21 05:21:00,
2013-10-21 01:26:00,42.0,40.4,30.10,WSW,241,0.0,1.0,94,0.00,,---,0.00,VWS V14.01,2013-10-21 05:26:00,
2013-10-21 01:31:00,42.1,40.5,30.10,WSW,241,0.0,1.0,94,0.00,,---,0.00,VWS V14.01,2013-10-21 05:31:00,
2013-10-21 01:36:00,42.2,40.6,30.10,WSW,241,0.0,1.0,94,0.00,,---,0.00,VWS V14.01,2013-10-21 05:36:00,
2013-10-21 01:41:00,42.1,40.5,30.10,WSW,241,0.0,0.0,94,0.00,,---,0.00,VWS V14.01,2013-10-21 05:41:00,
2013-10-21 01:46:00,42.0,40.4,30.10,WSW,241,0.0,0.0,94,0.00,,---,0.00,VWS V14.01,2013-10-21 05:46:00,
2013-10-21 01:51:00,42.0,40.4,30.10,WSW,241,0.0,0.0,94,0.00,,---,0.00,VWS V14.01,2013-10-21 05:51:00,
2013-10-21 01:56:00,41.9,40.3,30.10,WSW,241,0.0,0.0,94,0.00,,---,0.00,VWS V14.01,2013-10-21 05:56:00,
2013-10-21 02:01:00,41.7,40.1,30.10,WSW,241,0.0,0.0,94,0.00,,---,0.00,VWS V14.01,2013-10-21 06:01:00,
2013-10-21 02:06:00,41.6,40.0,30.11,WSW,241,0.0,0.0,94,0.00,,---,0.00,VWS V14.01,2013-10-21 06:06:00,
2013-10-21 02:11:00,41.4,39.8,30.11,WSW,241,0.0,0.0,94,0.00,,---,0.00,VWS V14.01,2013-10-21 06:11:00,
2013-10-21 02:16:00,41.1,39.5,30.11,WSW,241,0.0,0.0,94,0.00,,---,0.00,VWS V14.01,2013-10-21 06:16:00,
2013-10-21 02:21:00,41.0,39.4,30.11,WSW,241,0.0,0.0,94,0.00,,---,0.00,VWS V14.01,2013-10-21 06:21:00,
2013-10-21 02:26:00,40.8,38.9,30.11,WSW,241,0.0,0.0,93,0.00,,---,0.00,VWS V14.01,2013-10-21 06:26:00,
2013-10-21 02:31:00,40.7,39.1,30.11,WSW,241,0.0,0.0,94,0.00,,---,0.00,VWS V14.01,2013-10-21 06:31:00,
2013-10-21 02:36:00,40.7,39.1,30.11,WSW,241,0.0,0.0,94,0.00,,---,0.00,VWS V14.01,2013-10-21 06:36:00,
2013-10-21 02:41:00,40.8,39.2,30.11,WSW,241,0.0,0.0,94,0.00,,---,0.00,VWS V14.01,2013-10-21 06:41:00,
2013-10-21 02:46:00,40.9,39.6,30.11,WSW,241,1.0,1.0,95,0.00,,---,0.00,VWS V14.01,2013-10-21 06:46:00,
2013-10-21 02:51:00,40.9,39.6,30.11,WSW,241,0.0,1.0,95,0.00,,---,0.00,VWS V14.01,2013-10-21 06:51:00,
2013-10-21 02:56:00,40.9,39.6,30.11,WSW,241,1.0,1.0,95,0.00,,---,0.00,VWS V14.01,2013-10-21 06:56:00,
2013-10-21 03:01:00,40.9,39.6,30.11,WSW,241,0.0,1.0,95,0.00,,---,0.00,VWS V14.01,2013-10-21 07:01:00,
2013-10-21 03:06:00,40.9,39.6,30.11,WSW,241,0.0,1.0,95,0.00,,---,0.00,VWS V14.01,2013-10-21 07:06:00,
2013-10-21 03:11:00,40.9,39.6,30.11,WSW,241,0.0,1.0,95,0.00,,---,0.00,VWS V14.01,2013-10-21 07:11:00,
2013-10-21 03:16:00,40.7,39.4,30.11,WSW,241,0.0,1.0,95,0.00,,---,0.00,VWS V14.01,2013-10-21 07:16:00,
2013-10-21 03:21:00,40.6,39.0,30.11,WSW,241,0.0,1.0,94,0.00,,---,0.00,VWS V14.01,2013-10-21 07:21:00,
2013-10-21 03:26:00,40.4,38.8,30.11,WSW,241,0.0,1.0,94,0.00,,---,0.00,VWS V14.01,2013-10-21 07:26:00,
2013-10-21 03:31:00,40.4,38.8,30.11,WSW,241,0.0,1.0,94,0.00,,---,0.00,VWS V14.01,2013-10-21 07:31:00,
2013-10-21 03:36:00,40.3,38.7,30.11,WSW,241,0.0,1.0,94,0.00,,---,0.00,VWS V14.01,2013-10-21 07:36:00,
2013-10-21 03:41:00,40.1,38.5,30.12,WSW,241,0.0,0.0,94,0.00,,---,0.00,VWS V14.01,2013-10-21 07:41:00,
2013-10-21 03:46:00,40.0,38.4,30.12,WSW,241,0.0,0.0,94,0.00,,---,0.00,VWS V14.01,2013-10-21 07:46:00,
2013-10-21 03:51:00,39.9,38.3,30.12,WSW,241,0.0,0.0,94,0.00,,---,0.00,VWS V14.01,2013-10-21 07:51:00,
2013-10-21 03:56:00,39.9,38.3,30.12,WSW,241,0.0,0.0,94,0.00,,---,0.00,VWS V14.01,2013-10-21 07:56:00,
2013-10-21 04:01:00,40.0,38.7,30.12,WSW,241,0.0,0.0,95,0.00,,---,0.00,VWS V14.01,2013-10-21 08:01:00,
2013-10-21 04:06:00,40.1,38.8,30.12,WSW,241,0.0,0.0,95,0.00,,---,0.00,VWS V14.01,2013-10-21 08:06:00,
2013-10-21 04:11:00,40.3,39.0,30.12,WSW,241,0.0,1.0,95,0.00,,---,0.00,VWS V14.01,2013-10-21 08:11:00,
2013-10-21 04:16:00,40.8,39.8,30.12,WSW,241,0.0,1.0,96,0.00,,---,0.00,VWS V14.01,2013-10-21 08:16:00,
2013-10-21 04:21:00,41.3,40.2,30.12,WSW,241,0.0,1.0,96,0.00,,---,0.00,VWS V14.01,2013-10-21 08:21:00,
2013-10-21 04:26:00,41.7,40.7,30.12,WSW,241,0.0,1.0,96,0.00,,---,0.00,VWS V14.01,2013-10-21 08:26:00,
2013-10-21 04:31:00,42.0,40.9,30.12,WSW,241,0.0,1.0,96,0.00,,---,0.00,VWS V14.01,2013-10-21 08:31:00,
2013-10-21 04:36:00,42.3,41.2,30.12,WSW,241,0.0,1.0,96,0.00,,---,0.00,VWS V14.01,2013-10-21 08:36:00,
2013-10-21 04:41:00,42.6,41.5,30.12,WSW,241,0.0,0.0,96,0.00,,---,0.00,VWS V14.01,2013-10-21 08:41:00,
2013-10-21 04:46:00,42.8,41.7,30.12,WSW,241,0.0,0.0,96,0.00,,---,0.00,VWS V14.01,2013-10-21 08:46:00,
2013-10-21 04:51:00,43.0,41.9,30.13,WSW,241,0.0,0.0,96,0.00,,---,0.00,VWS V14.01,2013-10-21 08:51:00,
2013-10-21 04:56:00,43.4,42.3,30.13,WSW,241,0.0,1.0,96,0.00,,---,0.00,VWS V14.01,2013-10-21 08:56:00,
2013-10-21 05:01:00,43.8,42.7,30.13,WSW,241,0.0,1.0,96,0.00,,---,0.00,VWS V14.01,2013-10-21 09:01:00,
2013-10-21 05:06:00,44.0,42.9,30.13,WSW,241,0.0,1.0,96,0.00,,---,0.00,VWS V14.01,2013-10-21 09:06:00,
2013-10-21 05:11:00,44.1,43.0,30.13,WSW,241,0.0,1.0,96,0.00,,---,0.00,VWS V14.01,2013-10-21 09:11:00,
2013-10-21 05:16:00,44.2,43.1,30.13,WSW,241,0.0,1.0,96,0.00,,---,0.00,VWS V14.01,2013-10-21 09:16:00,
2013-10-21 05:21:00,44.3,43.2,30.13,WSW,241,0.0,1.0,96,0.00,,---,0.00,VWS V14.01,2013-10-21 09:21:00,
2013-10-21 05:26:00,44.4,43.3,30.13,WSW,241,0.0,1.0,96,0.00,,---,0.00,VWS V14.01,2013-10-21 09:26:00,
2013-10-21 05:31:00,44.5,43.4,30.13,WSW,241,0.0,1.0,96,0.00,,---,0.00,VWS V14.01,2013-10-21 09:31:00,
2013-10-21 05:36:00,44.5,43.4,30.13,WSW,241,0.0,1.0,96,0.00,,---,0.00,VWS V14.01,2013-10-21 09:36:00,
2013-10-21 05:41:00,44.7,43.6,30.14,WSW,241,1.0,1.0,96,0.00,,---,0.00,VWS V14.01,2013-10-21 09:41:00,
2013-10-21 05:45:00,44.7,43.6,30.14,WSW,241,0.0,1.0,96,0.00,,---,0.00,VWS V14.01,2013-10-21 09:45:00,
2013-10-21 05:50:00,44.7,43.6,30.14,WSW,241,0.0,1.0,96,0.00,,---,0.00,VWS V14.01,2013-10-21 09:50:00,
2013-10-21 05:55:00,44.7,43.6,30.14,WSW,241,0.0,1.0,96,0.00,,---,0.00,VWS V14.01,2013-10-21 09:55:00,
2013-10-21 06:00:00,44.7,43.6,30.14,WSW,241,0.0,1.0,96,0.00,,---,0.00,VWS V14.01,2013-10-21 10:00:00,
2013-10-21 06:05:00,44.7,43.6,30.14,WSW,241,0.0,1.0,96,0.00,,---,0.00,VWS V14.01,2013-10-21 10:05:00,
2013-10-21 06:10:00,44.6,43.5,30.14,WSW,241,1.0,1.0,96,0.00,,---,0.00,VWS V14.01,2013-10-21 10:10:00,
2013-10-21 06:15:00,44.6,43.5,30.14,WSW,241,0.0,1.0,96,0.00,,---,0.00,VWS V14.01,2013-10-21 10:15:00,
2013-10-21 06:20:00,44.6,43.5,30.14,WSW,241,0.0,1.0,96,0.00,,---,0.00,VWS V14.01,2013-10-21 10:20:00,
2013-10-21 06:25:00,44.5,43.4,30.15,WSW,241,0.0,1.0,96,0.00,,---,0.00,VWS V14.01,2013-10-21 10:25:00,
2013-10-21 06:30:00,44.4,43.3,30.15,WSW,241,0.0,1.0,96,0.00,,---,0.00,VWS V14.01,2013-10-21 10:30:00,
2013-10-21 06:35:00,44.0,42.9,30.15,WSW,241,0.0,1.0,96,0.00,,---,0.00,VWS V14.01,2013-10-21 10:35:00,
2013-10-21 06:40:00,43.6,42.5,30.15,WSW,241,0.0,0.0,96,0.00,,---,0.00,VWS V14.01,2013-10-21 10:40:00,
2013-10-21 06:45:00,43.4,42.3,30.15,WSW,241,0.0,1.0,96,0.00,,---,0.00,VWS V14.01,2013-10-21 10:45:00,
2013-10-21 06:50:00,43.1,42.0,30.15,WSW,241,0.0,1.0,96,0.00,,---,0.00,VWS V14.01,2013-10-21 10:50:00,
2013-10-21 06:55:00,42.8,41.7,30.16,WSW,241,0.0,1.0,96,0.00,,---,0.00,VWS V14.01,2013-10-21 10:55:00,
2013-10-21 07:00:00,42.4,41.3,30.16,WSW,241,0.0,1.0,96,0.00,,---,0.00,VWS V14.01,2013-10-21 11:00:00,
2013-10-21 07:05:00,42.1,40.8,30.16,WSW,241,0.0,1.0,95,0.00,,---,0.00,VWS V14.01,2013-10-21 11:05:00,
2013-10-21 07:10:00,41.9,40.8,30.16,WSW,241,1.0,1.0,96,0.00,,---,0.00,VWS V14.01,2013-10-21 11:10:00,
2013-10-21 07:15:00,41.9,40.8,30.16,WSW,241,0.0,1.0,96,0.00,,---,0.00,VWS V14.01,2013-10-21 11:15:00,
2013-10-21 07:20:00,41.9,40.8,30.16,WSW,241,0.0,1.0,96,0.00,,---,0.00,VWS V14.01,2013-10-21 11:20:00,
2013-10-21 07:25:00,41.9,40.8,30.16,WSW,241,0.0,1.0,96,0.00,,---,0.00,VWS V14.01,2013-10-21 11:25:00,
2013-10-21 07:30:00,41.9,40.8,30.17,WSW,241,0.0,1.0,96,0.00,,---,0.00,VWS V14.01,2013-10-21 11:30:00,
2013-10-21 07:35:00,41.9,40.8,30.17,WSW,241,0.0,1.0,96,0.00,,---,0.00,VWS V14.01,2013-10-21 11:35:00,
2013-10-21 07:40:00,41.6,40.3,30.17,WSW,241,0.0,0.0,95,0.00,,---,0.00,VWS V14.01,2013-10-21 11:40:00,
2013-10-21 07:45:00,41.4,40.3,30.17,WSW,241,0.0,0.0,96,0.00,,---,0.00,VWS V14.01,2013-10-21 11:45:00,
2013-10-21 07:50:00,41.1,40.0,30.17,WSW,241,0.0,0.0,96,0.00,,---,0.00,VWS V14.01,2013-10-21 11:50:00,
2013-10-21 07:55:00,40.9,39.6,30.17,WSW,241,0.0,1.0,95,0.00,,---,0.00,VWS V14.01,2013-10-21 11:55:00,
2013-10-21 08:00:00,40.7,39.4,30.17,WSW,241,0.0,1.0,95,0.00,,---,0.00,VWS V14.01,2013-10-21 12:00:00,
2013-10-21 08:05:00,40.3,39.0,30.17,WSW,241,0.0,1.0,95,0.00,,---,0.00,VWS V14.01,2013-10-21 12:05:00,
2013-10-21 08:10:00,40.0,38.7,30.17,WSW,241,0.0,0.0,95,0.00,,---,0.00,VWS V14.01,2013-10-21 12:10:00,
2013-10-21 08:15:00,39.8,38.5,30.17,WSW,241,0.0,0.0,95,0.00,,---,0.00,VWS V14.01,2013-10-21 12:15:00,
2013-10-21 08:20:00,39.6,38.3,30.17,WSW,241,0.0,0.0,95,0.00,,---,0.00,VWS V14.01,2013-10-21 12:20:00,
2013-10-21 08:25:00,39.6,38.3,30.17,WSW,241,0.0,0.0,95,0.00,,---,0.00,VWS V14.01,2013-10-21 12:25:00,
2013-10-21 08:30:00,39.7,38.4,30.17,WSW,241,0.0,0.0,95,0.00,,---,0.00,VWS V14.01,2013-10-21 12:30:00,
2013-10-21 08:35:00,39.7,38.4,30.17,WSW,241,0.0,0.0,95,0.00,,---,0.00,VWS V14.01,2013-10-21 12:35:00,
2013-10-21 08:40:00,39.9,38.6,30.17,WSW,241,0.0,0.0,95,0.00,,---,0.00,VWS V14.01,2013-10-21 12:40:00,
2013-10-21 08:45:00,40.0,38.7,30.18,WSW,241,0.0,0.0,95,0.00,,---,0.00,VWS V14.01,2013-10-21 12:45:00,
2013-10-21 08:50:00,40.2,39.2,30.18,WSW,241,0.0,2.0,96,0.00,,---,0.00,VWS V14.01,2013-10-21 12:50:00,
2013-10-21 08:55:00,40.5,39.5,30.18,WSW,241,0.0,2.0,96,0.00,,---,0.00,VWS V14.01,2013-10-21 12:55:00,
2013-10-21 09:00:00,41.1,40.0,30.18,South,176,1.0,2.0,96,0.00,,---,0.00,VWS V14.01,2013-10-21 13:00:00,
2013-10-21 09:05:00,41.6,40.5,30.18,South,176,0.0,2.0,96,0.00,,---,0.00,VWS V14.01,2013-10-21 13:05:00,
2013-10-21 09:10:00,42.2,41.1,30.19,South,176,1.0,2.0,96,0.00,,---,0.00,VWS V14.01,2013-10-21 13:10:00,
2013-10-21 09:15:00,42.5,41.4,30.19,SW,227,1.0,3.0,96,0.00,,---,0.00,VWS V14.01,2013-10-21 13:15:00,
2013-10-21 09:20:00,42.8,41.7,30.19,SW,227,1.0,3.0,96,0.00,,---,0.00,VWS V14.01,2013-10-21 13:20:00,
2013-10-21 09:25:00,43.4,42.3,30.19,SW,226,2.0,3.0,96,0.00,,---,0.00,VWS V14.01,2013-10-21 13:25:00,
2013-10-21 09:30:00,44.0,42.9,30.19,SW,227,1.0,3.0,96,0.00,,---,0.00,VWS V14.01,2013-10-21 13:30:00,
2013-10-21 09:35:00,44.6,43.8,30.19,SW,227,0.0,3.0,97,0.00,,---,0.00,VWS V14.01,2013-10-21 13:35:00,
2013-10-21 09:40:00,45.4,44.6,30.19,SW,227,1.0,1.0,97,0.00,,---,0.00,VWS V14.01,2013-10-21 13:40:00,
2013-10-21 09:45:00,46.5,45.7,30.19,SW,226,1.0,1.0,97,0.00,,---,0.00,VWS V14.01,2013-10-21 13:45:00,
2013-10-21 09:50:00,47.8,47.0,30.19,SW,227,1.0,2.0,97,0.00,,---,0.00,VWS V14.01,2013-10-21 13:50:00,
2013-10-21 09:55:00,48.8,48.0,30.19,SW,227,1.0,2.0,97,0.00,,---,0.00,VWS V14.01,2013-10-21 13:55:00,
2013-10-21 10:01:00,49.2,48.4,30.19,SSW,200,0.0,3.0,97,0.00,,---,0.00,VWS V14.01,2013-10-21 14:01:00,
2013-10-21 10:06:00,49.5,48.4,30.19,WSW,242,2.0,3.0,96,0.00,,---,0.00,VWS V14.01,2013-10-21 14:06:00,
2013-10-21 10:11:00,50.8,49.1,30.19,SW,221,1.0,2.0,94,0.00,,---,0.00,VWS V14.01,2013-10-21 14:11:00,
2013-10-21 10:16:00,52.3,50.0,30.19,WSW,250,1.0,2.0,92,0.00,,---,0.00,VWS V14.01,2013-10-21 14:16:00,
2013-10-21 10:21:00,53.7,49.9,30.18,WSW,252,0.0,2.0,87,0.00,,---,0.00,VWS V14.01,2013-10-21 14:21:00,
2013-10-21 10:26:00,55.1,50.7,30.18,WSW,252,0.0,2.0,85,0.00,,---,0.00,VWS V14.01,2013-10-21 14:26:00,
2013-10-21 10:31:00,56.2,50.8,30.18,WSW,252,0.0,2.0,82,0.00,,---,0.00,VWS V14.01,2013-10-21 14:31:00,
2013-10-21 10:36:00,57.0,50.6,30.18,WSW,254,2.0,4.0,79,0.00,,---,0.00,VWS V14.01,2013-10-21 14:36:00,
2013-10-21 10:41:00,57.6,51.1,30.17,WSW,246,0.0,3.0,79,0.00,,---,0.00,VWS V14.01,2013-10-21 14:41:00,
2013-10-21 10:46:00,58.1,51.3,30.17,West,259,1.0,3.0,78,0.00,,---,0.00,VWS V14.01,2013-10-21 14:46:00,
2013-10-21 10:51:00,58.8,51.6,30.17,West,263,1.0,3.0,77,0.00,,---,0.00,VWS V14.01,2013-10-21 14:51:00,
2013-10-21 10:56:00,59.0,51.8,30.17,WSW,244,1.0,3.0,77,0.00,,---,0.00,VWS V14.01,2013-10-21 14:56:00,
2013-10-21 11:00:00,59.8,52.2,30.17,WSW,242,2.0,3.0,76,0.00,,---,0.00,VWS V14.01,2013-10-21 15:00:00,
2013-10-21 11:05:00,60.1,52.2,30.17,SW,225,0.0,3.0,75,0.00,,---,0.00,VWS V14.01,2013-10-21 15:05:00,
2013-10-21 11:10:00,60.7,52.4,30.17,WSW,240,1.0,2.0,74,0.00,,---,0.00,VWS V14.01,2013-10-21 15:10:00,
2013-10-21 11:15:00,61.3,52.2,30.16,SW,231,1.0,3.0,72,0.00,,---,0.00,VWS V14.01,2013-10-21 15:15:00,
2013-10-21 11:20:00,61.7,53.0,30.16,SW,233,1.0,3.0,73,0.00,,---,0.00,VWS V14.01,2013-10-21 15:20:00,
2013-10-21 11:25:00,61.8,52.3,30.16,WSW,246,2.0,3.0,71,0.00,,---,0.00,VWS V14.01,2013-10-21 15:25:00,
2013-10-21 11:30:00,61.8,52.3,30.16,SW,228,3.0,3.0,71,0.00,,---,0.00,VWS V14.01,2013-10-21 15:30:00,
2013-10-21 11:35:00,62.2,52.7,30.15,West,275,1.0,3.0,71,0.00,,---,0.00,VWS V14.01,2013-10-21 15:35:00,
2013-10-21 11:41:00,62.7,53.2,30.15,SW,236,1.0,2.0,71,0.00,,---,0.00,VWS V14.01,2013-10-21 15:41:00,
2013-10-21 11:46:00,63.1,52.0,30.16,WSW,241,0.0,4.0,67,0.00,,---,0.00,VWS V14.01,2013-10-21 15:46:00,
2013-10-21 11:50:00,63.3,52.2,30.16,WNW,292,2.0,4.0,67,0.00,,---,0.00,VWS V14.01,2013-10-21 15:50:00,
2013-10-21 11:55:00,63.3,52.6,30.16,West,271,2.0,4.0,68,0.00,,---,0.00,VWS V14.01,2013-10-21 15:55:00,
2013-10-21 12:00:00,63.3,52.6,30.16,WSW,241,3.0,4.0,68,0.00,,---,0.00,VWS V14.01,2013-10-21 16:00:00,
2013-10-21 12:05:00,63.2,51.2,30.16,WSW,240,3.0,4.0,65,0.00,,---,0.00,VWS V14.01,2013-10-21 16:05:00,
2013-10-21 12:10:00,63.1,52.8,30.16,WSW,250,1.0,5.0,69,0.00,,---,0.00,VWS V14.01,2013-10-21 16:10:00,
2013-10-21 12:15:00,63.2,51.7,30.16,SW,226,2.0,5.0,66,0.00,,---,0.00,VWS V14.01,2013-10-21 16:15:00,
2013-10-21 12:20:00,63.2,52.1,30.15,West,273,1.0,5.0,67,0.00,,---,0.00,VWS V14.01,2013-10-21 16:20:00,
2013-10-21 12:25:00,63.5,52.0,30.15,West,260,1.0,5.0,66,0.00,,---,0.00,VWS V14.01,2013-10-21 16:25:00,
2013-10-21 12:30:00,63.9,52.7,30.15,WNW,299,0.0,5.0,67,0.00,,---,0.00,VWS V14.01,2013-10-21 16:30:00,
2013-10-21 12:35:00,64.6,52.2,30.15,ESE,105,2.0,5.0,64,0.00,,---,0.00,VWS V14.01,2013-10-21 16:35:00,
2013-10-21 12:40:00,64.1,52.9,30.15,ESE,119,0.0,2.0,67,0.00,,---,0.00,VWS V14.01,2013-10-21 16:40:00,
2013-10-21 12:45:00,64.2,53.8,30.14,WNW,294,1.0,4.0,69,0.00,,---,0.00,VWS V14.01,2013-10-21 16:45:00,
2013-10-21 12:50:00,64.6,52.2,30.14,ESE,122,2.0,4.0,64,0.00,,---,0.00,VWS V14.01,2013-10-21 16:50:00,
2013-10-21 12:55:00,64.7,52.3,30.14,ESE,118,2.0,4.0,64,0.00,,---,0.00,VWS V14.01,2013-10-21 16:55:00,
2013-10-21 13:00:00,64.5,52.5,30.13,SW,236,1.0,4.0,65,0.00,,---,0.00,VWS V14.01,2013-10-21 17:00:00,
2013-10-21 13:05:00,64.7,51.8,30.13,WSW,241,1.0,4.0,63,0.00,,---,0.00,VWS V14.01,2013-10-21 17:05:00,
2013-10-21 13:10:00,65.2,52.3,30.12,ESE,115,1.0,3.0,63,0.00,,---,0.00,VWS V14.01,2013-10-21 17:10:00,
2013-10-21 13:15:00,65.5,53.4,30.12,WSW,240,1.0,3.0,65,0.00,,---,0.00,VWS V14.01,2013-10-21 17:15:00,
2013-10-21 13:20:00,66.5,53.5,30.12,WSW,253,2.0,4.0,63,0.00,,---,0.00,VWS V14.01,2013-10-21 17:20:00,
2013-10-21 13:25:00,67.4,52.1,30.12,North,9,0.0,4.0,58,0.00,,---,0.00,VWS V14.01,2013-10-21 17:25:00,
2013-10-21 13:30:00,67.4,53.0,30.11,West,259,1.0,4.0,60,0.00,,---,0.00,VWS V14.01,2013-10-21 17:30:00,
2013-10-21 13:35:00,67.4,51.7,30.11,East,92,2.0,4.0,57,0.00,,---,0.00,VWS V14.01,2013-10-21 17:35:00,
2013-10-21 13:40:00,67.1,52.8,30.10,ENE,63,1.0,2.0,60,0.00,,---,0.00,VWS V14.01,2013-10-21 17:40:00,
2013-10-21 13:45:00,67.8,53.0,30.10,WNW,283,1.0,3.0,59,0.00,,---,0.00,VWS V14.01,2013-10-21 17:45:00,
2013-10-21 13:50:00,68.7,54.3,30.09,WNW,290,0.0,3.0,60,0.00,,---,0.00,VWS V14.01,2013-10-21 17:50:00,
2013-10-21 13:55:00,69.0,53.2,30.09,SE,142,1.0,3.0,57,0.00,,---,0.00,VWS V14.01,2013-10-21 17:55:00,
2013-10-21 14:00:00,69.5,52.2,30.09,SE,137,0.0,3.0,54,0.00,,---,0.00,VWS V14.01,2013-10-21 18:00:00,
2013-10-21 14:05:00,69.3,52.0,30.09,West,271,3.0,5.0,54,0.00,,---,0.00,VWS V14.01,2013-10-21 18:05:00,
2013-10-21 14:10:00,68.8,51.5,30.09,West,264,3.0,3.0,54,0.00,,---,0.00,VWS V14.01,2013-10-21 18:10:00,
2013-10-21 14:15:00,68.5,52.2,30.09,SE,140,0.0,3.0,56,0.00,,---,0.00,VWS V14.01,2013-10-21 18:15:00,
2013-10-21 14:20:00,68.6,51.8,30.08,NNE,25,1.0,3.0,55,0.00,,---,0.00,VWS V14.01,2013-10-21 18:20:00,
2013-10-21 14:25:00,68.6,50.8,30.08,ESE,116,1.0,3.0,53,0.00,,---,0.00,VWS V14.01,2013-10-21 18:25:00,
2013-10-21 14:30:00,68.6,51.3,30.09,South,182,1.0,3.0,54,0.00,,---,0.00,VWS V14.01,2013-10-21 18:30:00,
2013-10-21 14:35:00,69.0,50.1,30.08,WSW,237,1.0,4.0,51,0.00,,---,0.00,VWS V14.01,2013-10-21 18:35:00,
2013-10-21 14:40:00,69.2,50.3,30.07,WSW,237,1.0,2.0,51,0.00,,---,0.00,VWS V14.01,2013-10-21 18:40:00,
2013-10-21 14:45:00,69.2,50.3,30.07,WNW,289,1.0,2.0,51,0.00,,---,0.00,VWS V14.01,2013-10-21 18:45:00,
2013-10-21 14:50:00,69.1,49.7,30.07,WNW,289,2.0,2.0,50,0.00,,---,0.00,VWS V14.01,2013-10-21 18:50:00,
2013-10-21 14:55:00,68.8,47.8,30.07,SE,128,1.0,3.0,47,0.00,,---,0.00,VWS V14.01,2013-10-21 18:55:00,
2013-10-21 15:00:00,68.5,48.6,30.06,SSW,194,2.0,3.0,49,0.00,,---,0.00,VWS V14.01,2013-10-21 19:00:00,
2013-10-21 15:05:00,68.5,49.7,30.06,WSW,246,0.0,4.0,51,0.00,,---,0.00,VWS V14.01,2013-10-21 19:05:00,
2013-10-21 15:10:00,68.6,49.8,30.06,WSW,252,1.0,2.0,51,0.00,,---,0.00,VWS V14.01,2013-10-21 19:10:00,
2013-10-21 15:15:00,68.7,48.8,30.06,SSW,196,1.0,3.0,49,0.00,,---,0.00,VWS V14.01,2013-10-21 19:15:00,
2013-10-21 15:20:00,68.6,48.7,30.06,West,265,2.0,4.0,49,0.00,,---,0.00,VWS V14.01,2013-10-21 19:20:00,
2013-10-21 15:25:00,68.6,49.2,30.06,South,182,2.0,4.0,50,0.00,,---,0.00,VWS V14.01,2013-10-21 19:25:00,
2013-10-21 15:30:00,68.4,49.1,30.06,SSE,150,0.0,4.0,50,0.00,,---,0.00,VWS V14.01,2013-10-21 19:30:00,
2013-10-21 15:35:00,68.2,51.4,30.06,SE,144,0.0,4.0,55,0.00,,---,0.00,VWS V14.01,2013-10-21 19:35:00,
2013-10-21 15:40:00,67.9,49.7,30.06,ESE,119,1.0,2.0,52,0.00,,---,0.00,VWS V14.01,2013-10-21 19:40:00,
2013-10-21 15:45:00,67.7,50.5,30.06,ESE,120,1.0,2.0,54,0.00,,---,0.00,VWS V14.01,2013-10-21 19:45:00,
2013-10-21 15:50:00,67.7,49.5,30.05,SSW,195,1.0,2.0,52,0.00,,---,0.00,VWS V14.01,2013-10-21 19:50:00,
2013-10-21 15:55:00,67.8,49.5,30.05,ESE,113,1.0,3.0,52,0.00,,---,0.00,VWS V14.01,2013-10-21 19:55:00,
2013-10-21 16:00:00,67.9,50.2,30.05,ESE,113,0.0,3.0,53,0.00,,---,0.00,VWS V14.01,2013-10-21 20:00:00,
2013-10-21 16:05:00,68.1,51.3,30.04,SW,234,1.0,3.0,55,0.00,,---,0.00,VWS V14.01,2013-10-21 20:05:00,
2013-10-21 16:10:00,68.3,50.5,30.04,NW,325,1.0,3.0,53,0.00,,---,0.00,VWS V14.01,2013-10-21 20:10:00,
2013-10-21 16:15:00,68.4,51.1,30.04,NW,325,0.0,3.0,54,0.00,,---,0.00,VWS V14.01,2013-10-21 20:15:00,
2013-10-21 16:20:00,68.3,52.0,30.04,ESE,109,2.0,3.0,56,0.00,,---,0.00,VWS V14.01,2013-10-21 20:20:00,
2013-10-21 16:25:00,68.0,50.8,30.04,ESE,113,1.0,3.0,54,0.00,,---,0.00,VWS V14.01,2013-10-21 20:25:00,
2013-10-21 16:30:00,67.7,50.5,30.04,ESE,113,1.0,3.0,54,0.00,,---,0.00,VWS V14.01,2013-10-21 20:30:00,
2013-10-21 16:35:00,67.6,50.9,30.04,ESE,113,0.0,3.0,55,0.00,,---,0.00,VWS V14.01,2013-10-21 20:35:00,
2013-10-21 16:40:00,67.7,51.9,30.04,ESE,113,0.0,1.0,57,0.00,,---,0.00,VWS V14.01,2013-10-21 20:40:00,
2013-10-21 16:45:00,67.6,52.8,30.04,ESE,113,1.0,1.0,59,0.00,,---,0.00,VWS V14.01,2013-10-21 20:45:00,
2013-10-21 16:50:00,67.5,52.7,30.04,ESE,119,1.0,1.0,59,0.00,,---,0.00,VWS V14.01,2013-10-21 20:50:00,
2013-10-21 16:55:00,67.5,50.8,30.04,SSE,155,1.0,2.0,55,0.00,,---,0.00,VWS V14.01,2013-10-21 20:55:00,
2013-10-21 17:00:00,67.4,53.0,30.04,SSE,155,0.0,2.0,60,0.00,,---,0.00,VWS V14.01,2013-10-21 21:00:00,
2013-10-21 17:05:00,67.2,53.3,30.04,SSE,155,0.0,2.0,61,0.00,,---,0.00,VWS V14.01,2013-10-21 21:05:00,
2013-10-21 17:10:00,67.0,53.6,30.04,SSE,155,0.0,1.0,62,0.00,,---,0.00,VWS V14.01,2013-10-21 21:10:00,
2013-10-21 17:15:00,66.7,55.4,30.04,SSE,155,0.0,1.0,67,0.00,,---,0.00,VWS V14.01,2013-10-21 21:15:00,
2013-10-21 17:20:00,66.3,53.8,30.04,SSE,155,0.0,1.0,64,0.00,,---,0.00,VWS V14.01,2013-10-21 21:20:00,
2013-10-21 17:25:00,65.9,53.8,30.04,SSE,155,0.0,1.0,65,0.00,,---,0.00,VWS V14.01,2013-10-21 21:25:00,
2013-10-21 17:30:00,65.6,54.0,30.04,SSE,155,0.0,1.0,66,0.00,,---,0.00,VWS V14.01,2013-10-21 21:30:00,
2013-10-21 17:35:00,65.3,54.1,30.03,SSE,155,0.0,1.0,67,0.00,,---,0.00,VWS V14.01,2013-10-21 21:35:00,
2013-10-21 17:40:00,65.0,54.2,30.03,SSE,155,0.0,0.0,68,0.00,,---,0.00,VWS V14.01,2013-10-21 21:40:00,
2013-10-21 17:45:00,64.8,54.4,30.03,SSE,155,0.0,1.0,69,0.00,,---,0.00,VWS V14.01,2013-10-21 21:45:00,
2013-10-21 17:50:00,64.5,54.5,30.03,SSE,155,0.0,1.0,70,0.00,,---,0.00,VWS V14.01,2013-10-21 21:50:00,
2013-10-21 17:55:00,64.2,54.6,30.03,SSE,155,0.0,1.0,71,0.00,,---,0.00,VWS V14.01,2013-10-21 21:55:00,
2013-10-21 18:00:00,63.9,54.3,30.03,SSE,155,0.0,1.0,71,0.00,,---,0.00,VWS V14.01,2013-10-21 22:00:00,
2013-10-21 18:05:00,63.4,54.2,30.03,SSE,155,0.0,1.0,72,0.00,,---,0.00,VWS V14.01,2013-10-21 22:05:00,
2013-10-21 18:10:00,63.0,53.8,30.04,SSE,155,0.0,0.0,72,0.00,,---,0.00,VWS V14.01,2013-10-21 22:10:00,
2013-10-21 18:15:00,62.8,54.4,30.04,SSE,155,0.0,0.0,74,0.00,,---,0.00,VWS V14.01,2013-10-21 22:15:00,
2013-10-21 18:20:00,62.5,54.8,30.04,SSE,155,0.0,0.0,76,0.00,,---,0.00,VWS V14.01,2013-10-21 22:20:00,
2013-10-21 18:25:00,62.2,54.5,30.04,SSE,155,0.0,0.0,76,0.00,,---,0.00,VWS V14.01,2013-10-21 22:25:00,
2013-10-21 18:30:00,61.9,54.3,30.04,SSE,155,0.0,0.0,76,0.00,,---,0.00,VWS V14.01,2013-10-21 22:30:00,
2013-10-21 18:35:00,61.6,54.3,30.04,SSE,155,0.0,0.0,77,0.00,,---,0.00,VWS V14.01,2013-10-21 22:35:00,
2013-10-21 18:40:00,61.2,53.9,30.05,SSE,155,0.0,0.0,77,0.00,,---,0.00,VWS V14.01,2013-10-21 22:40:00,
2013-10-21 18:45:00,60.7,53.5,30.05,SSE,155,0.0,0.0,77,0.00,,---,0.00,VWS V14.01,2013-10-21 22:45:00,
2013-10-21 18:50:00,60.4,53.2,30.05,SSE,155,0.0,0.0,77,0.00,,---,0.00,VWS V14.01,2013-10-21 22:50:00,
2013-10-21 18:55:00,60.0,53.1,30.05,SSE,155,0.0,0.0,78,0.00,,---,0.00,VWS V14.01,2013-10-21 22:55:00,
2013-10-21 19:00:00,59.7,53.2,30.05,SSE,155,0.0,0.0,79,0.00,,---,0.00,VWS V14.01,2013-10-21 23:00:00,
2013-10-21 19:05:00,59.4,52.9,30.05,SSE,155,0.0,0.0,79,0.00,,---,0.00,VWS V14.01,2013-10-21 23:05:00,
2013-10-21 19:10:00,59.0,53.2,30.05,SSE,155,0.0,0.0,81,0.00,,---,0.00,VWS V14.01,2013-10-21 23:10:00,
2013-10-21 19:15:00,59.0,53.5,30.05,SSE,155,0.0,0.0,82,0.00,,---,0.00,VWS V14.01,2013-10-21 23:15:00,
2013-10-21 19:20:00,58.7,53.2,30.05,SSE,155,0.0,0.0,82,0.00,,---,0.00,VWS V14.01,2013-10-21 23:20:00,
2013-10-21 19:25:00,58.4,53.3,30.05,SSE,155,0.0,0.0,83,0.00,,---,0.00,VWS V14.01,2013-10-21 23:25:00,
2013-10-21 19:30:00,58.2,53.4,30.05,SSE,155,0.0,0.0,84,0.00,,---,0.00,VWS V14.01,2013-10-21 23:30:00,
2013-10-21 19:35:00,58.0,53.5,30.05,SSE,155,0.0,0.0,85,0.00,,---,0.00,VWS V14.01,2013-10-21 23:35:00,
2013-10-21 19:40:00,57.9,53.4,30.05,SSE,155,0.0,0.0,85,0.00,,---,0.00,VWS V14.01,2013-10-21 23:40:00,
2013-10-21 19:45:00,57.7,53.2,30.05,SSE,155,0.0,0.0,85,0.00,,---,0.00,VWS V14.01,2013-10-21 23:45:00,
2013-10-21 19:50:00,57.5,53.0,30.05,SSE,155,0.0,0.0,85,0.00,,---,0.00,VWS V14.01,2013-10-21 23:50:00,
2013-10-21 19:55:00,57.3,53.2,30.06,SSE,155,0.0,0.0,86,0.00,,---,0.00,VWS V14.01,2013-10-21 23:55:00,
2013-10-21 20:00:00,57.2,53.1,30.06,SSE,155,0.0,0.0,86,0.00,,---,0.00,VWS V14.01,2013-10-22 00:00:00,
2013-10-21 20:05:00,57.1,53.3,30.06,SSE,155,0.0,0.0,87,0.00,,---,0.00,VWS V14.01,2013-10-22 00:05:00,
2013-10-21 20:10:00,56.9,53.1,30.06,SSE,155,1.0,1.0,87,0.00,,---,0.00,VWS V14.01,2013-10-22 00:10:00,
2013-10-21 20:15:00,56.8,53.0,30.06,SSE,155,0.0,1.0,87,0.00,,---,0.00,VWS V14.01,2013-10-22 00:15:00,
2013-10-21 20:20:00,56.8,53.0,30.06,SSE,155,0.0,1.0,87,0.00,,---,0.00,VWS V14.01,2013-10-22 00:20:00,
2013-10-21 20:25:00,56.7,52.6,30.06,SSE,155,0.0,1.0,86,0.00,,---,0.00,VWS V14.01,2013-10-22 00:25:00,
2013-10-21 20:30:00,56.6,52.8,30.06,SSE,155,0.0,1.0,87,0.00,,---,0.00,VWS V14.01,2013-10-22 00:30:00,
2013-10-21 20:35:00,56.5,52.4,30.07,SSE,155,0.0,1.0,86,0.00,,---,0.00,VWS V14.01,2013-10-22 00:35:00,
2013-10-21 20:40:00,56.4,52.3,30.07,SSE,155,0.0,0.0,86,0.00,,---,0.00,VWS V14.01,2013-10-22 00:40:00,
2013-10-21 20:45:00,56.2,52.1,30.07,SSE,155,0.0,0.0,86,0.00,,---,0.00,VWS V14.01,2013-10-22 00:45:00,
2013-10-21 20:50:00,56.1,52.0,30.07,SSE,155,0.0,0.0,86,0.00,,---,0.00,VWS V14.01,2013-10-22 00:50:00,
2013-10-21 20:55:00,56.0,52.2,30.07,SSE,155,0.0,0.0,87,0.00,,---,0.00,VWS V14.01,2013-10-22 00:55:00,
2013-10-21 21:00:00,55.7,51.9,30.07,SSE,155,1.0,1.0,87,0.00,,---,0.00,VWS V14.01,2013-10-22 01:00:00,
2013-10-21 21:05:00,55.6,51.8,30.06,SSE,155,0.0,1.0,87,0.00,,---,0.00,VWS V14.01,2013-10-22 01:05:00,
2013-10-21 21:10:00,55.5,51.7,30.05,SSE,155,0.0,0.0,87,0.00,,---,0.00,VWS V14.01,2013-10-22 01:10:00,
2013-10-21 21:15:00,55.3,51.8,30.05,SSE,155,0.0,0.0,88,0.00,,---,0.00,VWS V14.01,2013-10-22 01:15:00,
2013-10-21 21:20:00,55.2,51.7,30.05,SSE,155,0.0,0.0,88,0.00,,---,0.00,VWS V14.01,2013-10-22 01:20:00,
2013-10-21 21:25:00,55.1,51.3,30.05,SSE,155,0.0,0.0,87,0.00,,---,0.00,VWS V14.01,2013-10-22 01:25:00,
2013-10-21 21:30:00,54.9,51.1,30.05,SSE,155,0.0,0.0,87,0.00,,---,0.00,VWS V14.01,2013-10-22 01:30:00,
2013-10-21 21:35:00,54.8,51.3,30.05,SSE,155,1.0,1.0,88,0.00,,---,0.00,VWS V14.01,2013-10-22 01:35:00,
2013-10-21 21:40:00,54.6,51.4,30.05,SSE,155,0.0,1.0,89,0.00,,---,0.00,VWS V14.01,2013-10-22 01:40:00,
2013-10-21 21:45:00,54.6,51.7,30.05,SSE,153,1.0,1.0,90,0.00,,---,0.00,VWS V14.01,2013-10-22 01:45:00,
2013-10-21 21:50:00,54.5,51.6,30.05,SSE,153,1.0,1.0,90,0.00,,---,0.00,VWS V14.01,2013-10-22 01:50:00,
2013-10-21 21:54:00,54.4,51.5,30.05,SSE,153,0.0,1.0,90,0.00,,---,0.00,VWS V14.01,2013-10-22 01:54:00,
2013-10-21 21:59:00,54.4,51.5,30.05,SSE,153,0.0,1.0,90,0.00,,---,0.00,VWS V14.01,2013-10-22 01:59:00,
2013-10-21 22:04:00,54.4,51.5,30.06,SSE,153,0.0,1.0,90,0.00,,---,0.00,VWS V14.01,2013-10-22 02:04:00,
2013-10-21 22:09:00,54.4,51.8,30.05,SSE,152,0.0,0.0,91,0.00,,---,0.00,VWS V14.01,2013-10-22 02:09:00,
2013-10-21 22:14:00,54.4,51.8,30.05,SSE,152,0.0,0.0,91,0.00,,---,0.00,VWS V14.01,2013-10-22 02:14:00,
2013-10-21 22:19:00,54.3,51.4,30.04,SSE,153,0.0,0.0,90,0.00,,---,0.00,VWS V14.01,2013-10-22 02:19:00,
2013-10-21 22:24:00,54.2,51.6,30.04,SSE,153,1.0,1.0,91,0.00,,---,0.00,VWS V14.01,2013-10-22 02:24:00,
2013-10-21 22:29:00,54.2,51.6,30.05,SSE,153,0.0,1.0,91,0.00,,---,0.00,VWS V14.01,2013-10-22 02:29:00,
2013-10-21 22:34:00,54.3,51.7,30.05,SSE,153,0.0,1.0,91,0.00,,---,0.00,VWS V14.01,2013-10-22 02:34:00,
2013-10-21 22:39:00,54.3,51.7,30.05,SSE,153,0.0,0.0,91,0.00,,---,0.00,VWS V14.01,2013-10-22 02:39:00,
2013-10-21 22:44:00,54.2,51.6,30.05,SSE,153,0.0,0.0,91,0.00,,---,0.00,VWS V14.01,2013-10-22 02:44:00,
2013-10-21 22:49:00,54.2,51.6,30.05,SSE,153,0.0,1.0,91,0.00,,---,0.00,VWS V14.01,2013-10-22 02:49:00,
2013-10-21 22:54:00,54.1,51.5,30.05,SSE,153,0.0,1.0,91,0.00,,---,0.00,VWS V14.01,2013-10-22 02:54:00,
2013-10-21 22:59:00,54.1,51.5,30.05,SSE,153,0.0,1.0,91,0.00,,---,0.00,VWS V14.01,2013-10-22 02:59:00,
2013-10-21 23:04:00,54.0,51.4,30.05,SSE,153,1.0,1.0,91,0.00,,---,0.00,VWS V14.01,2013-10-22 03:04:00,
2013-10-21 23:09:00,54.0,51.4,30.05,SSE,153,0.0,0.0,91,0.00,,---,0.00,VWS V14.01,2013-10-22 03:09:00,
2013-10-21 23:14:00,53.9,51.3,30.05,SSE,153,0.0,1.0,91,0.00,,---,0.00,VWS V14.01,2013-10-22 03:14:00,
2013-10-21 23:19:00,53.9,51.3,30.05,SSE,153,0.0,1.0,91,0.00,,---,0.00,VWS V14.01,2013-10-22 03:19:00,
2013-10-21 23:24:00,53.9,51.3,30.05,SSE,153,0.0,1.0,91,0.00,,---,0.00,VWS V14.01,2013-10-22 03:24:00,
2013-10-21 23:29:00,53.9,51.3,30.05,SSE,153,0.0,1.0,91,0.00,,---,0.00,VWS V14.01,2013-10-22 03:29:00,
2013-10-21 23:33:00,54.0,51.7,30.05,SSE,153,1.0,1.0,92,0.00,,---,0.00,VWS V14.01,2013-10-22 03:33:00,
2013-10-21 23:38:00,54.0,51.7,30.06,SSE,152,1.0,1.0,92,0.00,,---,0.00,VWS V14.01,2013-10-22 03:38:00,
2013-10-21 23:43:00,54.1,51.8,30.06,SSE,153,1.0,1.0,92,0.00,,---,0.00,VWS V14.01,2013-10-22 03:43:00,
2013-10-21 23:48:00,54.2,51.9,30.06,SSE,152,1.0,1.0,92,0.00,,---,0.00,VWS V14.01,2013-10-22 03:48:00,
2013-10-21 23:53:00,54.3,51.7,30.05,SSE,153,1.0,1.0,91,0.00,,---,0.00,VWS V14.01,2013-10-22 03:53:00,
2013-10-21 23:58:00,54.4,51.8,30.05,SSE,152,0.0,1.0,91,0.00,,---,0.00,VWS V14.01,2013-10-22 03:58:00,